Regional Weather Roundup
Issued by NWS

Home | Current Version | Previous Version | Graphics & Text | Print | Product List | Glossary On
Versions: 1 2 3 4 5 6 7 8 9 10 11 12 13 14 15 16 17 18 19 20 21 22 23 24 25 26 27 28 29 30 31 32 33 34 35 36 37 38 39 40 41 42 43 44 45 46 47 48 49 50
000
ASUS43 KLSX 060307
RWRMO

WEATHER SUMMARY FOR MISSOURI
NATIONAL WEATHER SERVICE SPRINGFIELD MO
1000 PM CDT TUE MAY 05 2015

NOTE: "FAIR" INDICATES FEW OR NO CLOUDS BELOW 12,000 FEET WITH NO
       SIGNIFICANT WEATHER AND/OR OBSTRUCTIONS TO VISIBILITY.
       CURRENT SKY AND/OR WEATHER CONDITIONS ARE NOT AVAILABLE FOR
       CHILLICOTHE AND FARMINGTON.

MOZ001>031-035>038-043-044-053-054-060400-
...NORTHERN AND WESTERN MISSOURI...

CITY           SKY/WX    TMP DP  RH WIND       PRES   REMARKS
KANSAS CTY INT LGT RAIN  64  62  93 SE9       30.05S
KANSAS C DTWN  LGT RAIN  66  63  90 N3        30.03R
LEE`S SUMMIT   CLOUDY    71  61  70 CALM      30.05R
ST JOSEPH      LGT RAIN  66  62  87 S12       30.05R
CHILLICOTHE      N/A     70  59  68 CALM      30.07R
KIRKSVILLE     CLOUDY    69  60  73 S7        30.10R

$$
MOZ066>068-077>081-088>096-101>105-060400-
...SOUTHWEST MISSOURI...

CITY           SKY/WX    TMP DP  RH WIND       PRES   REMARKS
SPRINGFIELD    PTCLDY    70  54  56 SE10      30.08R
JOPLIN         CLOUDY    71  55  56 SE8       30.03R

$$
MOZ032>034-039>042-045>050-055>058-069>072-060400-
...CENTRAL MISSOURI...

CITY           SKY/WX    TMP DP  RH WIND       PRES   REMARKS
COLUMBIA       PTCLDY    69  61  75 SE7       30.10R
JEFFERSON CITY PTCLDY    68  62  81 SE5       30.09R
ROLLA          CLEAR     67  55  65 SE8       30.11R
SEDALIA        MOCLDY    68  61  78 SE8       30.09R
WARRENSBURG    CLOUDY    64  59  82 E5        30.06R
OSAGE BEACH    PTCLDY    73  54  49 SE3       30.09R

$$
MOZ051-052-059>065-060400-
...EAST CENTRAL MISSOURI...

CITY           SKY/WX    TMP DP  RH WIND       PRES   REMARKS
ST LOUIS INTL  PTCLDY    76  57  51 SE7       30.14R
SPIRIT OF STL  CLEAR     68  58  70 SE3       30.12R
ST CHARLES     PTCLDY    68  55  63 E9        30.12R

$$
MOZ072>076-082>087-097>100-106>115-060400-
...SOUTH CENTRAL AND SOUTHEAST MISSOURI...

CITY           SKY/WX    TMP DP  RH WIND       PRES   REMARKS
CAPE GIRARDEAU PTCLDY    64  60  87 SE5       30.15R
FARMINGTON     PTCLDY    68  57  68 SE5       30.19R
POPLAR BLUFF   CLEAR     70  54  56 SE3       30.13R
WEST PLAINS    CLEAR     63  53  70 CALM      30.15R

$$


USA.gov is the U.S. government's official web portal to all federal, state and local government web resources and services.